TimeCST,TemperatureF,Dew PointF,Humidity,Sea Level PressureIn,VisibilityMPH,Wind Direction,Wind SpeedMPH,Gust SpeedMPH,PrecipitationIn,Events,Conditions,WindDirDegrees,DateUTC
12:58 AM,31.1,23.2,72,30.40,10.0,WSW,4.6,-,N/A,,Clear,250,2013-12-13 06:58:00
1:58 AM,28.9,23.5,80,30.38,10.0,North,4.6,-,N/A,,Clear,10,2013-12-13 07:58:00
2:58 AM,31.1,25.7,80,30.38,10.0,ENE,2.3,-,N/A,,Clear,60,2013-12-13 08:58:00
3:58 AM,31.1,26.1,82,30.38,10.0,East,3.5,-,N/A,,Clear,90,2013-12-13 09:58:00
4:58 AM,29.3,26.4,89,30.38,10.0,North,2.3,-,N/A,,Clear,360,2013-12-13 10:58:00
5:58 AM,29.1,26.2,89,30.37,10.0,Calm,Calm,-,N/A,,Clear,0,2013-12-13 11:58:00
6:58 AM,29.5,26.1,87,30.37,10.0,Calm,Calm,-,N/A,,Scattered Clouds,0,2013-12-13 12:58:00
7:58 AM,34.5,26.6,73,30.37,10.0,NE,4.6,-,N/A,,Mostly Cloudy,50,2013-12-13 13:58:00
8:58 AM,37.0,25.2,62,30.38,10.0,ENE,2.3,-,N/A,,Mostly Cloudy,60,2013-12-13 14:58:00
9:58 AM,41.5,24.4,51,30.35,10.0,ENE,5.8,-,N/A,,Scattered Clouds,60,2013-12-13 15:58:00
10:58 AM,44.2,24.8,46,30.33,10.0,North,3.5,-,N/A,,Partly Cloudy,10,2013-12-13 16:58:00
11:58 AM,45.5,26.1,47,30.28,10.0,Variable,3.5,-,N/A,,Mostly Cloudy,0,2013-12-13 17:58:00
12:58 PM,49.8,26.6,41,30.25,10.0,NE,5.8,-,N/A,,Overcast,50,2013-12-13 18:58:00
1:58 PM,51.8,28.4,41,30.22,10.0,NE,5.8,-,N/A,,Mostly Cloudy,40,2013-12-13 19:58:00
2:58 PM,54.1,29.7,39,30.20,10.0,NE,5.8,-,N/A,,Scattered Clouds,50,2013-12-13 20:58:00
3:58 PM,53.1,31.3,43,30.17,10.0,NE,5.8,-,N/A,,Scattered Clouds,50,2013-12-13 21:58:00
4:58 PM,51.4,31.8,47,30.17,10.0,NE,5.8,-,N/A,,Scattered Clouds,50,2013-12-13 22:58:00
5:58 PM,48.2,34.9,60,30.19,10.0,NNE,6.9,-,N/A,,Partly Cloudy,30,2013-12-13 23:58:00
6:58 PM,48.6,33.1,55,30.19,10.0,NNE,4.6,-,N/A,,Mostly Cloudy,30,2013-12-14 00:58:00
7:58 PM,46.6,34.9,64,30.18,10.0,NE,2.3,-,N/A,,Scattered Clouds,50,2013-12-14 01:58:00
8:58 PM,46.8,35.2,64,30.16,10.0,Calm,Calm,-,N/A,,Scattered Clouds,0,2013-12-14 02:58:00
9:58 PM,44.4,37.4,76,30.15,10.0,NNW,4.6,-,N/A,,Overcast,340,2013-12-14 03:58:00
10:58 PM,46.4,36.1,67,30.14,10.0,NE,1.2,-,N/A,,Overcast,40,2013-12-14 04:58:00
11:58 PM,47.7,35.8,63,30.11,10.0,ENE,4.6,-,N/A,,Mostly Cloudy,60,2013-12-14 05:58:00